Home > Weather > Neunkirchen > Past weeks

Flag for Austria Past Weather in Neunkirchen, Lower Austria, Austria — Yesterday and Last 2 Weeks

Now
64 °F

Clear.


Feels Like: 64 °F
Forecast: 61 / 81 °F
Wind: 2 mph from East

Location: Eisenstadt

Current Time: Aug 28, 2016 at 7:10:37 AM

Latest Report: Aug 28, 2016 at 6:00 AM


Visibility: 9 mi

Pressure: 30.05 "Hg

Humidity: 86%

Dew Point: 60 °F

Location of NeunkirchenLocation

Past Weather in Neunkirchen — Graph

°F

Neunkirchen Temperature Yesterday

Maximum temperature yesterday: 85 °F (at 2:00 PM)
Minimum temperature yesterday: 61 °F (at 4:00 AM)
Average temperature yesterday: 74 °F

High & Low Weather Summary for the Past Weeks

 TemperatureHumidityPressure
High85 °F (Aug 27, 2:00 PM)97% (Aug 20, 7:00 AM)30.33 "Hg (Aug 20, 7:00 AM)
Low56 °F (Aug 18, 3:00 AM)36% (Aug 26, 3:00 PM)29.80 "Hg (Aug 18, 4:00 PM)
Average69 °F70%30.08 "Hg
* Reported Aug 13 6:00 AM — Aug 28 6:00 AM, Neunkirchen, Weather by CustomWeather, © 2016

Note: Actual official high and low records may vary slightly from our data, if they occured in-between our weather recording intervals... More about our weather records

Advertising

Neunkirchen Weather History for the Previous 24 Hours

Scroll right to see more
 ConditionsComfort  
Time TempWeatherWind HumidityBarometerVisibility
6:00 AM
Sun, Aug 28
64 °FClear.2 mph86%30.05 "Hg9 mi
5:00 AM64 °FClear.3 mph88%30.05 "Hg9 mi
4:00 AM63 °FClear.1 mph87%30.06 "Hg9 mi
3:00 AM66 °FMild.1 mph78%30.06 "HgN/A
2:00 AM67 °FClear.1 mph77%30.07 "Hg9 mi
1:00 AM66 °FMild.1 mph83%30.09 "HgN/A
12:00 AM67 °FMild.1 mph79%30.09 "HgN/A
11:00 PM
Sat, Aug 27
68 °FClear.No wind79%30.09 "Hg9 mi
10:00 PM71 °FMild.1 mph72%30.09 "HgN/A
9:00 PM74 °FMild.2 mph65%30.09 "HgN/A
8:00 PM77 °FClear.3 mph57%30.07 "Hg12 mi
7:00 PM82 °FSunny.5 mph45%30.07 "Hg12 mi
6:00 PM84 °FWarm.7 mph42%30.07 "HgN/A
5:00 PM85 °FSunny.6 mph42%30.07 "Hg12 mi
4:00 PM85 °FWarm.7 mph41%30.09 "HgN/A
3:00 PM85 °FWarm.6 mph41%30.09 "HgN/A
2:00 PM85 °FSunny.6 mph40%30.10 "Hg12 mi
1:00 PM83 °FWarm.7 mph43%30.11 "HgN/A
12:00 PM81 °FWarm.8 mph48%30.12 "HgN/A
11:00 AM81 °FWarm.8 mph48%30.13 "HgN/A
10:00 AM78 °FWarm.6 mph52%30.14 "HgN/A
9:00 AM73 °FMild.6 mph62%30.14 "HgN/A
8:00 AM67 °FSunny.3 mph73%30.14 "Hg9 mi
7:00 AM61 °FSunny.2 mph84%30.15 "Hg9 mi
Weather by CustomWeather, © 2016

See weather overviewHow to use our weather pages